Home   Weather   Norrköping   Past weeks

Flag for Sweden Past Weather in Norrköping, Sweden — Yesterday and Last 2 Weeks

Now
41 °F

Passing clouds.


Feels Like: 33 °F
Forecast: 33 / 41 °F
Wind: 15 mph from West

Location: Norrkoping Airport

Current Time: Jan 19, 2017 at 12:03:14 pm

Latest Report: Jan 19, 2017 at 11:20 am


Visibility: N/A

Pressure: 30.21 "Hg

Humidity: 93%

Dew Point: 39 °F

Location of NorrköpingLocation

Past Weather in Norrköping — Graph

°F

Norrköping Temperature Yesterday

Maximum temperature yesterday: 41 °F (at 4:50 pm)
Minimum temperature yesterday: 32 °F (at 12:20 am)
Average temperature yesterday: 38 °F

High & Low Weather Summary for the Past Weeks

 TemperatureHumidityPressure
High41 °F (Jan 18, 4:50 pm)100% (Jan 5, 9:50 pm)30.72 "Hg (Jan 5, 9:50 pm)
Low-8 °F (Jan 6, 6:20 am)67% (Jan 5, 1:20 am)28.77 "Hg (Jan 11, 10:20 pm)
Average28 °F88%29.93 "Hg
* Reported Jan 4 10:20 am — Jan 19 10:50 am, Norrköping, Weather by CustomWeather, © 2017

Note: Actual official high and low records may vary slightly from our data, if they occured in-between our weather recording intervals... More about our weather records

Advertising

Norrköping Weather History for the Previous 24 Hours

Scroll right to see more
 ConditionsComfort  
Time TempWeatherWind HumidityBarometerVisibility
10:50 am
Thu, Jan 19
41 °FPassing clouds.13 mph93%30.21 "HgN/A
10:20 am39 °FSunny.15 mph93%30.24 "Hg10 mi
9:50 am37 °FSunny.12 mph100%30.24 "Hg10 mi
9:20 am37 °FSunny.9 mph100%30.24 "Hg10 mi
8:50 am37 °FSunny.12 mph100%30.24 "Hg10 mi
8:20 am37 °FPassing clouds.13 mph100%30.24 "HgN/A
7:50 am37 °FClear.13 mph100%30.24 "Hg10 mi
7:20 am37 °FPassing clouds.9 mph93%30.24 "HgN/A
6:50 am37 °FPassing clouds.9 mph100%30.24 "HgN/A
6:20 am37 °FPassing clouds.9 mph100%30.24 "HgN/A
5:50 am37 °FPassing clouds.9 mph100%30.24 "HgN/A
5:20 am39 °FPassing clouds.13 mph93%30.24 "HgN/A
4:50 am39 °FOvercast.14 mph93%30.24 "HgN/A
4:20 am39 °FOvercast.14 mph93%30.24 "HgN/A
3:50 am39 °FOvercast.12 mph93%30.24 "HgN/A
3:20 am41 °FOvercast.12 mph93%30.24 "HgN/A
2:50 am41 °FOvercast.12 mph93%30.24 "HgN/A
2:20 am41 °FOvercast.12 mph93%30.24 "HgN/A
1:50 am41 °FPassing clouds.16 mph93%30.21 "HgN/A
1:20 am41 °FPassing clouds.16 mph93%30.21 "HgN/A
12:50 am41 °FLow clouds.15 mph100%30.24 "HgN/A
12:20 am41 °FLow clouds.13 mph100%30.24 "HgN/A
11:50 pm
Wed, Jan 18
41 °FLow clouds.12 mph100%30.24 "HgN/A
11:20 pm41 °FLow clouds.15 mph93%30.24 "HgN/A
10:50 pm41 °FLow clouds.14 mph93%30.21 "HgN/A
10:20 pm41 °FLow clouds.14 mph93%30.24 "HgN/A
9:50 pm41 °FLow clouds.15 mph100%30.24 "HgN/A
9:20 pm41 °FLow clouds.16 mph100%30.24 "HgN/A
8:50 pm41 °FLow clouds.16 mph100%30.24 "HgN/A
8:20 pm41 °FLow clouds.15 mph100%30.24 "Hg6 mi
7:50 pm41 °FFog.15 mph100%30.24 "Hg2 mi
7:20 pm41 °FFog.16 mph100%30.27 "Hg3 mi
6:50 pm41 °FFog.15 mph100%30.27 "Hg6 mi
6:20 pm41 °FLow clouds.13 mph100%30.27 "HgN/A
5:50 pm41 °FDrizzle. Low clouds.14 mph100%30.27 "Hg6 mi
5:20 pm41 °FDrizzle. Low clouds.13 mph100%30.27 "Hg6 mi
4:50 pm41 °FDrizzle. Low clouds.14 mph93%30.27 "Hg5 mi
4:20 pm39 °FFog.14 mph100%30.30 "Hg4 mi
3:50 pm39 °FFog.14 mph100%30.30 "Hg2 mi
3:20 pm39 °FFog.13 mph100%30.30 "Hg3 mi
2:50 pm39 °FFog.13 mph100%30.30 "Hg6 mi
2:20 pm39 °FLow clouds.14 mph100%30.30 "HgN/A
1:50 pm39 °FLow clouds.12 mph93%30.30 "HgN/A
1:20 pm37 °FLow clouds.13 mph100%30.33 "HgN/A
12:50 pm37 °FLow clouds.14 mph100%30.33 "HgN/A
12:20 pm37 °FLow clouds.13 mph100%30.33 "HgN/A
Weather by CustomWeather, © 2017

See weather overviewHow to use our weather pages